Location: Carson
(33.8314°N, 118.2820°W)
Time: 13:49:36
(UTC+00:00)

Delta 2 Rocket - Pass Details

Date: 23 November 2020
Orbit: 415 x 805 km, 35.6° (Epoch: 22 January)

Event Time Altitude Azimuth Distance (km) Brightness Sun altitude
Exits shadow 13:55:31 10° 282° (WNW) 2,020 5.5 -8.1°
Reaches altitude 10° 13:55:33 10° 282° (WNW) 2,007 5.5 -8.1°
Maximum altitude 14:00:11 77° 196° (SSW) 589 3.5 -7.2°
Drops below altitude 10° 14:04:13 10° 111° (ESE) 1,753 7.8 -6.4°
Sets 14:06:18 0° 110° (ESE) 2,579 9.7 -6.0°
